• In Romania
  • List of Countries
  • For 7 days
  • Water Temperature
  • Satellite Maps
  • Weather Map
  • Weather Widgets
  • user-avatar
    Login

    Hourly Weather Prutz

    Today, 26 June, Monday

    Time Temperature Precipitation Wind Pressure Humidity
    00:00 +8°C° 0 mm 1 mps 634 mmHg 91%
    01:00 +9°C° 0 mm 1 mps 633 mmHg 91%
    02:00 +8°C° 0 mm 1 mps 633 mmHg 91%
    03:00 +8°C° 0 mm 1 mps 633 mmHg 90%
    04:00 +8°C° 0 mm 1 mps 633 mmHg 90%
    05:00 +10°C° 0 mm 1 mps 634 mmHg 82%
    06:00 +13°C° 0 mm 1 mps 635 mmHg 74%
    07:00 +15°C° 0 mm 0 mps 636 mmHg 64%
    08:00 +18°C° 0 mm 0 mps 637 mmHg 56%
    09:00 +20°C° 0 mm 0 mps 637 mmHg 47%
    10:00 +24°C° 0 mm 1 mps 638 mmHg 39%
    11:00 +25°C° 0 mm 1 mps 638 mmHg 38%
    12:00 +25°C° 0 mm 1 mps 638 mmHg 37%
    13:00 +26°C° 0 mm 1 mps 638 mmHg 36%
    14:00 +25°C° 0.1 mm 1 mps 637 mmHg 40%
    15:00 +24°C° 0.1 mm 1 mps 636 mmHg 45%
    16:00 +23°C° 0.1 mm 1 mps 636 mmHg 50%
    17:00 +22°C° 0.5 mm 1 mps 635 mmHg 61%
    18:00 +20°C° 0.5 mm 1 mps 635 mmHg 72%
    19:00 +19°C° 0.5 mm 1 mps 634 mmHg 83%
    20:00 +18°C° 0.7 mm 1 mps 634 mmHg 86%
    21:00 +15°C° 0.7 mm 1 mps 634 mmHg 90%
    22:00 +14°C° 0.7 mm 1 mps 633 mmHg 93%
    23:00 +14°C° 1.1 mm 1 mps 633 mmHg 94%

    Tomorrow, 27 June, Tuesday

    Time Temperature Precipitation Wind Pressure Humidity
    00:00 +14°C° 1.1 mm 1 mps 633 mmHg 95%
    01:00 +13°C° 1.1 mm 1 mps 633 mmHg 96%
    02:00 +13°C° 0.5 mm 1 mps 633 mmHg 96%
    03:00 +13°C° 0.5 mm 1 mps 633 mmHg 96%
    04:00 +13°C° 0.5 mm 1 mps 633 mmHg 96%
    05:00 +13°C° 0.4 mm 1 mps 633 mmHg 95%
    06:00 +14°C° 0.4 mm 1 mps 633 mmHg 94%
    07:00 +14°C° 0.4 mm 1 mps 633 mmHg 93%
    08:00 +16°C° 0.2 mm 1 mps 633 mmHg 84%
    09:00 +19°C° 0.2 mm 1 mps 634 mmHg 75%
    10:00 +21°C° 0.2 mm 1 mps 634 mmHg 66%
    11:00 +21°C° 0.6 mm 1 mps 634 mmHg 66%
    12:00 +21°C° 0.6 mm 1 mps 634 mmHg 65%
    13:00 +22°C° 0.6 mm 1 mps 634 mmHg 65%
    14:00 +22°C° 1.1 mm 1 mps 633 mmHg 68%
    15:00 +21°C° 1.1 mm 1 mps 633 mmHg 72%
    16:00 +21°C° 1.1 mm 1 mps 633 mmHg 75%
    17:00 +20°C° 0.8 mm 1 mps 633 mmHg 80%
    18:00 +19°C° 0.8 mm 1 mps 632 mmHg 84%
    19:00 +19°C° 0.8 mm 1 mps 632 mmHg 88%
    20:00 +16°C° 0.4 mm 1 mps 631 mmHg 90%
    21:00 +14°C° 0.4 mm 1 mps 631 mmHg 93%
    22:00 +13°C° 0.4 mm 1 mps 630 mmHg 95%
    23:00 +13°C° 0.1 mm 2 mps 630 mmHg 94%

    Day after tomorrow, 28 June, Wednesday

    Time Temperature Precipitation Wind Pressure Humidity
    00:00 +13°C° 0.1 mm 2 mps 630 mmHg 94%
    01:00 +13°C° 0.1 mm 2 mps 630 mmHg 94%
    02:00 +13°C° 0 mm 2 mps 629 mmHg 94%
    03:00 +13°C° 0 mm 2 mps 629 mmHg 93%
    04:00 +12°C° 0 mm 2 mps 628 mmHg 93%
    05:00 +13°C° 0 mm 2 mps 628 mmHg 90%
    06:00 +14°C° 0 mm 2 mps 629 mmHg 88%
    07:00 +15°C° 0 mm 2 mps 629 mmHg 85%
    08:00 +16°C° 0.4 mm 2 mps 629 mmHg 81%
    09:00 +17°C° 0.4 mm 2 mps 629 mmHg 77%
    10:00 +18°C° 0.4 mm 2 mps 629 mmHg 72%
    11:00 +18°C° 0.8 mm 2 mps 629 mmHg 71%
    12:00 +19°C° 0.8 mm 2 mps 629 mmHg 70%
    13:00 +19°C° 0.8 mm 2 mps 629 mmHg 69%
    14:00 +19°C° 0.9 mm 2 mps 628 mmHg 71%
    15:00 +19°C° 0.9 mm 2 mps 628 mmHg 72%
    16:00 +18°C° 0.9 mm 2 mps 627 mmHg 74%
    17:00 +17°C° 1.8 mm 2 mps 627 mmHg 81%
    18:00 +16°C° 1.8 mm 2 mps 626 mmHg 87%
    19:00 +15°C° 1.8 mm 1 mps 625 mmHg 93%
    20:00 +14°C° 1.2 mm 1 mps 625 mmHg 94%
    21:00 +12°C° 1.2 mm 1 mps 624 mmHg 95%
    22:00 +11°C° 1.2 mm 1 mps 623 mmHg 96%
    23:00 +11°C° 0.5 mm 1 mps 623 mmHg 96%

    29 June, Thursday

    Time Temperature Precipitation Wind Pressure Humidity
    00:00 +11°C° 0.5 mm 1 mps 623 mmHg 96%
    01:00 +10°C° 0.5 mm 2 mps 622 mmHg 96%
    02:00 +10°C° 0.7 mm 1 mps 622 mmHg 97%
    03:00 +10°C° 0.7 mm 1 mps 622 mmHg 97%
    04:00 +10°C° 0.7 mm 1 mps 622 mmHg 97%
    05:00 +10°C° 0.9 mm 1 mps 623 mmHg 97%
    06:00 +10°C° 0.9 mm 1 mps 623 mmHg 96%
    07:00 +11°C° 0.9 mm 1 mps 624 mmHg 96%
    08:00 +11°C° 0.9 mm 1 mps 624 mmHg 94%
    09:00 +12°C° 0.9 mm 1 mps 624 mmHg 92%
    10:00 +12°C° 0.9 mm 1 mps 625 mmHg 90%
    11:00 +12°C° 1.3 mm 1 mps 625 mmHg 88%
    12:00 +13°C° 1.3 mm 1 mps 625 mmHg 87%
    13:00 +13°C° 1.3 mm 1 mps 626 mmHg 86%
    14:00 +12°C° 1.7 mm 2 mps 626 mmHg 88%
    15:00 +12°C° 1.7 mm 2 mps 626 mmHg 90%
    16:00 +12°C° 1.7 mm 2 mps 626 mmHg 92%
    17:00 +10°C° 1.7 mm 2 mps 626 mmHg 93%
    18:00 +9°C° 1.7 mm 2 mps 626 mmHg 95%
    19:00 +9°C° 1.7 mm 2 mps 626 mmHg 96%
    20:00 +8°C° 1.4 mm 2 mps 627 mmHg 96%
    21:00 +8°C° 1.4 mm 1 mps 627 mmHg 96%
    22:00 +7°C° 1.4 mm 1 mps 627 mmHg 96%
    23:00 +7°C° 0.5 mm 1 mps 627 mmHg 96%

    30 June, Friday

    Time Temperature Precipitation Wind Pressure Humidity
    00:00 +7°C° 0.5 mm 1 mps 628 mmHg 95%
    01:00 +6°C° 0.5 mm 1 mps 628 mmHg 95%
    02:00 +6°C° 0.1 mm 1 mps 628 mmHg 95%
    03:00 +5°C° 0.1 mm 1 mps 628 mmHg 94%
    04:00 +5°C° 0.1 mm 1 mps 627 mmHg 93%
    05:00 +6°C° 0 mm 1 mps 628 mmHg 92%
    06:00 +8°C° 0 mm 1 mps 629 mmHg 90%
    07:00 +9°C° 0 mm 1 mps 630 mmHg 89%
    08:00 +11°C° 0.1 mm 1 mps 630 mmHg 79%
    09:00 +13°C° 0.1 mm 2 mps 631 mmHg 70%
    10:00 +14°C° 0.1 mm 2 mps 632 mmHg 61%
    11:00 +15°C° 0.5 mm 2 mps 632 mmHg 62%
    12:00 +15°C° 0.5 mm 2 mps 632 mmHg 63%
    13:00 +15°C° 0.5 mm 2 mps 632 mmHg 64%
    14:00 +15°C° 0.8 mm 2 mps 632 mmHg 65%
    15:00 +15°C° 0.8 mm 2 mps 632 mmHg 66%
    16:00 +15°C° 0.8 mm 2 mps 632 mmHg 67%
    17:00 +14°C° 0.6 mm 1 mps 632 mmHg 72%
    18:00 +13°C° 0.6 mm 1 mps 632 mmHg 78%
    19:00 +12°C° 0.6 mm 1 mps 632 mmHg 83%
    20:00 +10°C° 0.3 mm 1 mps 632 mmHg 85%
    21:00 +9°C° 0.3 mm 1 mps 632 mmHg 88%
    22:00 +7°C° 0.3 mm 1 mps 632 mmHg 90%
    23:00 +7°C° 0 mm 1 mps 631 mmHg 90%

    1 July, Saturday

    Time Temperature Precipitation Wind Pressure Humidity
    00:00 +7°C° 0 mm 1 mps 631 mmHg 91%
    01:00 +6°C° 0 mm 1 mps 631 mmHg 91%
    02:00 +6°C° 0 mm 1 mps 631 mmHg 91%
    03:00 +6°C° 0 mm 1 mps 631 mmHg 91%
    04:00 +6°C° 0 mm 1 mps 630 mmHg 91%
    05:00 +8°C° 0 mm 1 mps 631 mmHg 88%
    06:00 +8°C° 0 mm 0 mps 632 mmHg 85%
    07:00 +10°C° 0 mm 0 mps 632 mmHg 81%
    08:00 +11°C° 0.4 mm 1 mps 632 mmHg 80%
    09:00 +12°C° 0.4 mm 1 mps 632 mmHg 78%
    10:00 +13°C° 0.4 mm 1 mps 633 mmHg 76%
    11:00 +13°C° 0.8 mm 1 mps 633 mmHg 77%
    12:00 +13°C° 0.8 mm 2 mps 633 mmHg 78%
    13:00 +13°C° 0.8 mm 2 mps 633 mmHg 80%
    14:00 +13°C° 1 mm 2 mps 633 mmHg 82%
    15:00 +13°C° 1 mm 2 mps 633 mmHg 84%
    16:00 +12°C° 1 mm 2 mps 633 mmHg 87%
    17:00 +12°C° 0.5 mm 2 mps 633 mmHg 89%
    18:00 +10°C° 0.5 mm 2 mps 634 mmHg 92%
    19:00 +10°C° 0.5 mm 1 mps 634 mmHg 94%
    20:00 +10°C° 0.6 mm 1 mps 634 mmHg 95%
    21:00 +9°C° 0.6 mm 1 mps 634 mmHg 96%
    22:00 +9°C° 0.6 mm 1 mps 635 mmHg 97%
    23:00 +9°C° 0.3 mm 1 mps 635 mmHg 97%
    Show more